• en Belgique
  • Liste des pays
  • À 7 jours
  • Température de l'eau
  • Carte satellitaire
  • Carte météo
  • Widgets météo
  • user-avatar
    Se connecter

    Météo par heure à Setif

    Ce jour, 22 Novembre, Mercredi

    Heure Température Précipitation Vent Pression Humidité
    00:00 +7°C° 0 mm 2 m/s 674 mmHg 40%
    01:00 +7°C° 0 mm 2 m/s 673 mmHg 41%
    02:00 +7°C° 0 mm 2 m/s 673 mmHg 41%
    03:00 +7°C° 0 mm 2 m/s 673 mmHg 42%
    04:00 +6°C° 0 mm 2 m/s 672 mmHg 42%
    05:00 +6°C° 0 mm 2 m/s 672 mmHg 43%
    06:00 +6°C° 0 mm 2 m/s 672 mmHg 43%
    07:00 +8°C° 0 mm 2 m/s 673 mmHg 40%
    08:00 +9°C° 0 mm 2 m/s 673 mmHg 37%
    09:00 +12°C° 0 mm 2 m/s 674 mmHg 34%
    10:00 +13°C° 0 mm 2 m/s 674 mmHg 30%
    11:00 +13°C° 0 mm 3 m/s 674 mmHg 27%
    12:00 +14°C° 0 mm 3 m/s 674 mmHg 23%
    13:00 +14°C° 0 mm 3 m/s 673 mmHg 24%
    14:00 +14°C° 0 mm 3 m/s 673 mmHg 25%
    15:00 +13°C° 0 mm 3 m/s 673 mmHg 26%
    16:00 +12°C° 0 mm 3 m/s 673 mmHg 29%
    17:00 +12°C° 0 mm 2 m/s 672 mmHg 32%
    18:00 +10°C° 0 mm 2 m/s 672 mmHg 35%
    19:00 +10°C° 0 mm 2 m/s 672 mmHg 37%
    20:00 +9°C° 0 mm 2 m/s 672 mmHg 38%
    21:00 +9°C° 0 mm 2 m/s 672 mmHg 40%
    22:00 +8°C° 0 mm 2 m/s 672 mmHg 41%
    23:00 +8°C° 0 mm 2 m/s 672 mmHg 43%

    Demain, 23 Novembre, Jeudi

    Heure Température Précipitation Vent Pression Humidité
    00:00 +8°C° 0 mm 2 m/s 672 mmHg 44%
    01:00 +8°C° 0 mm 2 m/s 672 mmHg 45%
    02:00 +8°C° 0 mm 2 m/s 672 mmHg 46%
    03:00 +8°C° 0 mm 2 m/s 672 mmHg 47%
    04:00 +8°C° 0 mm 2 m/s 672 mmHg 48%
    05:00 +8°C° 0 mm 1 m/s 672 mmHg 49%
    06:00 +8°C° 0 mm 1 m/s 672 mmHg 49%
    07:00 +9°C° 0 mm 1 m/s 673 mmHg 46%
    08:00 +10°C° 0 mm 1 m/s 673 mmHg 43%
    09:00 +11°C° 0 mm 1 m/s 674 mmHg 40%
    10:00 +12°C° 0 mm 1 m/s 674 mmHg 36%
    11:00 +13°C° 0 mm 1 m/s 674 mmHg 31%
    12:00 +14°C° 0 mm 1 m/s 674 mmHg 27%
    13:00 +15°C° 0 mm 2 m/s 674 mmHg 27%
    14:00 +15°C° 0 mm 2 m/s 674 mmHg 27%
    15:00 +15°C° 0 mm 2 m/s 674 mmHg 27%
    16:00 +13°C° 0 mm 2 m/s 674 mmHg 32%
    17:00 +12°C° 0 mm 2 m/s 674 mmHg 37%
    18:00 +11°C° 0 mm 1 m/s 674 mmHg 42%
    19:00 +10°C° 0 mm 1 m/s 674 mmHg 43%
    20:00 +9°C° 0 mm 1 m/s 674 mmHg 45%
    21:00 +9°C° 0 mm 1 m/s 674 mmHg 46%
    22:00 +8°C° 0 mm 1 m/s 674 mmHg 46%
    23:00 +8°C° 0 mm 1 m/s 674 mmHg 45%

    Après-demain, 24 Novembre, Vendredi

    Heure Température Précipitation Vent Pression Humidité
    00:00 +8°C° 0 mm 1 m/s 674 mmHg 45%
    01:00 +7°C° 0 mm 1 m/s 674 mmHg 45%
    02:00 +7°C° 0 mm 1 m/s 674 mmHg 44%
    03:00 +7°C° 0 mm 1 m/s 673 mmHg 43%
    04:00 +6°C° 0 mm 1 m/s 673 mmHg 42%
    05:00 +6°C° 0 mm 1 m/s 674 mmHg 41%
    06:00 +6°C° 0 mm 1 m/s 674 mmHg 40%
    07:00 +8°C° 0 mm 1 m/s 675 mmHg 35%
    08:00 +10°C° 0 mm 1 m/s 675 mmHg 30%
    09:00 +13°C° 0 mm 1 m/s 676 mmHg 25%
    10:00 +14°C° 0 mm 1 m/s 676 mmHg 23%
    11:00 +15°C° 0 mm 1 m/s 676 mmHg 21%
    12:00 +16°C° 0 mm 1 m/s 676 mmHg 18%
    13:00 +16°C° 0 mm 1 m/s 676 mmHg 19%
    14:00 +16°C° 0 mm 1 m/s 676 mmHg 20%
    15:00 +16°C° 0 mm 1 m/s 676 mmHg 21%
    16:00 +14°C° 0 mm 1 m/s 675 mmHg 25%
    17:00 +13°C° 0 mm 1 m/s 675 mmHg 29%
    18:00 +11°C° 0 mm 1 m/s 674 mmHg 33%
    19:00 +11°C° 0 mm 1 m/s 675 mmHg 33%
    20:00 +9°C° 0 mm 2 m/s 675 mmHg 33%
    21:00 +9°C° 0 mm 2 m/s 675 mmHg 32%
    22:00 +9°C° 0 mm 2 m/s 675 mmHg 33%
    23:00 +8°C° 0 mm 2 m/s 675 mmHg 34%

    25 Novembre, Samedi

    Heure Température Précipitation Vent Pression Humidité
    00:00 +8°C° 0 mm 2 m/s 674 mmHg 35%
    01:00 +8°C° 0 mm 2 m/s 674 mmHg 36%
    02:00 +7°C° 0 mm 2 m/s 674 mmHg 37%
    03:00 +7°C° 0 mm 2 m/s 673 mmHg 38%
    04:00 +7°C° 0 mm 2 m/s 673 mmHg 39%
    05:00 +7°C° 0 mm 2 m/s 674 mmHg 40%
    06:00 +7°C° 0 mm 2 m/s 674 mmHg 42%
    07:00 +8°C° 0 mm 3 m/s 674 mmHg 39%
    08:00 +10°C° 0 mm 3 m/s 675 mmHg 37%
    09:00 +12°C° 0 mm 3 m/s 676 mmHg 34%
    10:00 +13°C° 0 mm 3 m/s 676 mmHg 31%
    11:00 +14°C° 0 mm 3 m/s 676 mmHg 28%
    12:00 +16°C° 0 mm 3 m/s 676 mmHg 24%
    13:00 +16°C° 0 mm 2 m/s 676 mmHg 25%
    14:00 +16°C° 0 mm 2 m/s 675 mmHg 26%
    15:00 +16°C° 0 mm 2 m/s 675 mmHg 26%
    16:00 +15°C° 0 mm 2 m/s 675 mmHg 31%
    17:00 +13°C° 0 mm 1 m/s 675 mmHg 35%
    18:00 +11°C° 0 mm 1 m/s 675 mmHg 39%
    19:00 +11°C° 0 mm 1 m/s 675 mmHg 39%
    20:00 +10°C° 0 mm 1 m/s 675 mmHg 40%
    21:00 +10°C° 0 mm 1 m/s 675 mmHg 40%
    22:00 +9°C° 0 mm 2 m/s 675 mmHg 40%
    23:00 +9°C° 0 mm 2 m/s 675 mmHg 39%

    26 Novembre, Dimanche

    Heure Température Précipitation Vent Pression Humidité
    00:00 +8°C° 0 mm 2 m/s 674 mmHg 39%
    01:00 +8°C° 0 mm 2 m/s 674 mmHg 39%
    02:00 +8°C° 0 mm 2 m/s 674 mmHg 39%
    03:00 +8°C° 0 mm 2 m/s 674 mmHg 39%
    04:00 +8°C° 0 mm 2 m/s 674 mmHg 39%
    05:00 +8°C° 0 mm 2 m/s 674 mmHg 40%
    06:00 +8°C° 0 mm 2 m/s 674 mmHg 40%
    07:00 +9°C° 0 mm 2 m/s 675 mmHg 38%
    08:00 +10°C° 0 mm 2 m/s 675 mmHg 36%
    09:00 +13°C° 0 mm 2 m/s 676 mmHg 34%
    10:00 +14°C° 0 mm 2 m/s 676 mmHg 31%
    11:00 +15°C° 0 mm 2 m/s 676 mmHg 28%
    12:00 +15°C° 0 mm 2 m/s 676 mmHg 26%
    13:00 +15°C° 0 mm 2 m/s 676 mmHg 27%
    14:00 +16°C° 0 mm 2 m/s 676 mmHg 28%
    15:00 +16°C° 0 mm 2 m/s 675 mmHg 29%
    16:00 +14°C° 0 mm 2 m/s 675 mmHg 35%
    17:00 +12°C° 0 mm 1 m/s 675 mmHg 42%
    18:00 +10°C° 0 mm 1 m/s 675 mmHg 49%
    19:00 +10°C° 0 mm 1 m/s 675 mmHg 52%
    20:00 +9°C° 0 mm 1 m/s 675 mmHg 55%
    21:00 +8°C° 0 mm 0 m/s 675 mmHg 58%
    22:00 +9°C° 0 mm 1 m/s 675 mmHg 61%
    23:00 +8°C° 0 mm 1 m/s 675 mmHg 63%

    27 Novembre, Lundi

    Heure Température Précipitation Vent Pression Humidité
    00:00 +8°C° 0 mm 1 m/s 675 mmHg 66%
    01:00 +8°C° 0 mm 1 m/s 675 mmHg 69%
    02:00 +8°C° 0 mm 1 m/s 675 mmHg 72%
    03:00 +7°C° 0 mm 1 m/s 675 mmHg 75%
    04:00 +7°C° 0 mm 1 m/s 675 mmHg 79%
    05:00 +7°C° 0 mm 1 m/s 675 mmHg 82%
    06:00 +7°C° 0 mm 1 m/s 675 mmHg 85%
    07:00 +8°C° 0 mm 1 m/s 676 mmHg 80%
    08:00 +9°C° 0 mm 1 m/s 677 mmHg 75%
    09:00 +11°C° 0 mm 1 m/s 677 mmHg 69%
    10:00 +12°C° 0 mm 1 m/s 677 mmHg 63%
    11:00 +13°C° 0 mm 1 m/s 677 mmHg 57%
    12:00 +14°C° 0 mm 1 m/s 677 mmHg 51%
    13:00 +14°C° 0 mm 1 m/s 677 mmHg 52%
    14:00 +14°C° 0 mm 1 m/s 677 mmHg 52%
    15:00 +14°C° 0 mm 1 m/s 677 mmHg 52%
    16:00 +13°C° 0 mm 1 m/s 677 mmHg 59%
    17:00 +12°C° 0 mm 1 m/s 677 mmHg 65%
    18:00 +11°C° 0 mm 1 m/s 676 mmHg 72%
    19:00 +10°C° 0 mm 1 m/s 676 mmHg 70%
    20:00 +10°C° 0 mm 1 m/s 676 mmHg 68%
    21:00 +9°C° 0 mm 2 m/s 676 mmHg 66%
    22:00 +9°C° 0 mm 2 m/s 676 mmHg 63%
    23:00 +9°C° 0 mm 2 m/s 675 mmHg 59%
    Voir plus